TimeCDT,TemperatureF,Dew PointF,Humidity,Sea Level PressureIn,VisibilityMPH,Wind Direction,Wind SpeedMPH,Gust SpeedMPH,PrecipitationIn,Events,Conditions,WindDirDegrees,DateUTC
12:15 AM,72.5,57.6,59,30.08,10.0,SSE,3.5,-,N/A,,Clear,150,2013-05-27 05:15:00
12:35 AM,72.3,57.7,60,30.07,10.0,SSE,4.6,-,N/A,,Clear,160,2013-05-27 05:35:00
12:55 AM,70.5,57.6,63,30.07,10.0,South,4.6,-,N/A,,Clear,190,2013-05-27 05:55:00
1:15 AM,70.5,57.6,63,30.07,10.0,South,4.6,-,N/A,,Clear,180,2013-05-27 06:15:00
1:35 AM,70.3,57.4,63,30.07,10.0,South,5.8,-,N/A,,Clear,180,2013-05-27 06:35:00
1:55 AM,70.7,57.2,62,30.06,10.0,South,6.9,-,N/A,,Clear,170,2013-05-27 06:55:00
2:15 AM,70.2,57.2,63,30.06,10.0,South,5.8,-,N/A,,Clear,170,2013-05-27 07:15:00
2:35 AM,70.2,56.8,63,30.06,10.0,SSE,4.6,-,N/A,,Clear,160,2013-05-27 07:35:00
2:55 AM,69.4,57.0,65,30.06,10.0,South,4.6,-,N/A,,Clear,170,2013-05-27 07:55:00
3:15 AM,68.9,56.5,65,30.06,10.0,South,4.6,-,N/A,,Clear,170,2013-05-27 08:15:00
3:35 AM,69.4,56.3,63,30.06,10.0,South,4.6,-,N/A,,Clear,170,2013-05-27 08:35:00
3:55 AM,69.1,56.3,64,30.06,10.0,South,8.1,-,N/A,,Scattered Clouds,170,2013-05-27 08:55:00
4:15 AM,69.6,56.3,63,30.05,10.0,South,6.9,-,N/A,,Scattered Clouds,170,2013-05-27 09:15:00
4:35 AM,68.9,56.3,64,30.06,10.0,South,5.8,-,N/A,,Clear,180,2013-05-27 09:35:00
4:55 AM,68.7,56.7,65,30.06,10.0,South,8.1,-,N/A,,Clear,170,2013-05-27 09:55:00
5:15 AM,68.7,56.7,65,30.07,10.0,South,6.9,-,N/A,,Clear,180,2013-05-27 10:15:00
5:35 AM,68.7,56.5,65,30.07,10.0,South,4.6,-,N/A,,Clear,190,2013-05-27 10:35:00
5:55 AM,68.2,56.3,66,30.08,10.0,South,4.6,-,N/A,,Clear,180,2013-05-27 10:55:00
6:15 AM,68.0,56.8,67,30.08,10.0,South,3.5,-,N/A,,Clear,180,2013-05-27 11:15:00
6:35 AM,68.7,57.2,67,30.08,10.0,South,3.5,-,N/A,,Clear,190,2013-05-27 11:35:00
6:55 AM,69.8,57.9,66,30.07,10.0,South,4.6,-,N/A,,Clear,170,2013-05-27 11:55:00
7:15 AM,71.1,58.5,64,30.06,10.0,South,8.1,-,N/A,,Clear,170,2013-05-27 12:15:00
7:35 AM,72.7,59.4,63,30.06,10.0,South,6.9,-,N/A,,Clear,190,2013-05-27 12:35:00
7:55 AM,73.4,60.1,63,30.05,10.0,South,10.4,-,N/A,,Clear,170,2013-05-27 12:55:00
8:15 AM,75.2,61.0,61,30.05,10.0,SSW,6.9,-,N/A,,Clear,200,2013-05-27 13:15:00
8:35 AM,77.4,62.1,59,30.05,10.0,SSW,6.9,-,N/A,,Clear,200,2013-05-27 13:35:00
8:55 AM,79.0,62.1,56,30.05,10.0,SSW,9.2,-,N/A,,Clear,200,2013-05-27 13:55:00
9:15 AM,79.9,61.7,54,30.05,10.0,SSW,10.4,-,N/A,,Clear,200,2013-05-27 14:15:00
9:35 AM,81.0,61.5,51,30.05,10.0,South,6.9,-,N/A,,Clear,190,2013-05-27 14:35:00
9:55 AM,82.0,60.8,48,30.05,10.0,SSW,9.2,-,N/A,,Clear,200,2013-05-27 14:55:00
10:15 AM,82.9,60.3,46,30.04,10.0,South,10.4,16.1,N/A,,Clear,190,2013-05-27 15:15:00
10:35 AM,83.7,60.3,45,30.04,10.0,SSW,12.7,20.7,N/A,,Clear,200,2013-05-27 15:35:00
10:55 AM,84.0,57.7,41,30.04,10.0,SSW,17.3,24.2,N/A,,Clear,210,2013-05-27 15:55:00
11:15 AM,85.3,57.7,39,30.04,10.0,SSW,11.5,-,N/A,,Clear,210,2013-05-27 16:15:00
11:35 AM,85.6,56.5,37,30.04,10.0,SSW,16.1,-,N/A,,Clear,200,2013-05-27 16:35:00
11:55 AM,86.7,57.4,37,30.02,10.0,South,10.4,17.3,N/A,,Scattered Clouds,180,2013-05-27 16:55:00
12:15 PM,86.2,57.7,38,30.00,10.0,South,10.4,-,N/A,,Mostly Cloudy,180,2013-05-27 17:15:00
12:35 PM,86.2,58.8,39,30.00,10.0,South,15.0,21.9,N/A,,Scattered Clouds,190,2013-05-27 17:35:00
12:55 PM,86.5,59.7,40,30.01,10.0,South,12.7,21.9,N/A,,Scattered Clouds,190,2013-05-27 17:55:00
1:15 PM,86.9,60.8,41,30.01,10.0,SSW,9.2,20.7,N/A,,Mostly Cloudy,210,2013-05-27 18:15:00
1:35 PM,87.1,62.8,44,30.01,10.0,SSW,10.4,18.4,N/A,,Mostly Cloudy,200,2013-05-27 18:35:00
1:55 PM,88.0,63.0,43,30.00,10.0,SSW,11.5,23.0,N/A,,Mostly Cloudy,200,2013-05-27 18:55:00
2:15 PM,87.8,65.3,47,30.00,10.0,South,8.1,-,N/A,,Mostly Cloudy,190,2013-05-27 19:15:00
2:35 PM,86.5,64.0,47,29.99,10.0,South,11.5,21.9,N/A,,Overcast,190,2013-05-27 19:35:00
2:55 PM,87.6,65.5,48,29.99,10.0,South,13.8,-,N/A,,Mostly Cloudy,190,2013-05-27 19:55:00
3:15 PM,86.2,65.8,51,29.97,10.0,South,13.8,19.6,N/A,,Mostly Cloudy,180,2013-05-27 20:15:00
3:35 PM,86.2,66.2,51,29.96,10.0,South,11.5,17.3,N/A,,Overcast,190,2013-05-27 20:35:00
3:55 PM,85.3,65.7,52,29.96,10.0,South,11.5,19.6,N/A,,Mostly Cloudy,190,2013-05-27 20:55:00
4:15 PM,85.5,65.5,51,29.95,10.0,South,13.8,19.6,N/A,,Overcast,190,2013-05-27 21:15:00
4:35 PM,77.5,67.6,71,29.96,5.0,South,16.1,19.6,0.08,Rain-Thunderstorm,Light Thunderstorms and Rain,180,2013-05-27 21:35:00
4:55 PM,78.8,67.3,68,29.96,10.0,South,9.2,-,0.08,,Scattered Clouds,190,2013-05-27 21:55:00
5:15 PM,79.9,66.7,64,29.96,10.0,South,8.1,-,N/A,,Mostly Cloudy,190,2013-05-27 22:15:00
5:35 PM,82.4,66.6,59,29.97,10.0,South,8.1,-,N/A,,Mostly Cloudy,190,2013-05-27 22:35:00
5:55 PM,83.8,67.1,57,29.96,10.0,South,10.4,-,N/A,,Mostly Cloudy,180,2013-05-27 22:55:00
6:15 PM,83.7,66.4,56,29.95,10.0,South,10.4,-,N/A,,Mostly Cloudy,180,2013-05-27 23:15:00
6:35 PM,83.1,65.3,55,29.96,10.0,South,10.4,17.3,N/A,,Scattered Clouds,180,2013-05-27 23:35:00
6:55 PM,82.9,65.3,55,29.95,10.0,South,11.5,-,N/A,,Mostly Cloudy,170,2013-05-27 23:55:00
7:15 PM,82.8,64.4,54,29.94,10.0,South,15.0,-,N/A,,Scattered Clouds,170,2013-05-28 00:15:00
7:35 PM,81.9,63.7,54,29.93,10.0,SSE,13.8,-,N/A,,Clear,160,2013-05-28 00:35:00
7:55 PM,81.3,62.8,53,29.93,10.0,South,10.4,17.3,N/A,,Clear,180,2013-05-28 00:55:00
8:15 PM,80.6,62.4,54,29.91,10.0,SSE,16.1,20.7,N/A,,Clear,160,2013-05-28 01:15:00
8:35 PM,80.6,61.3,52,29.91,10.0,South,11.5,17.3,N/A,,Clear,170,2013-05-28 01:35:00
8:55 PM,80.2,61.0,52,29.91,10.0,South,12.7,17.3,N/A,,Clear,170,2013-05-28 01:55:00
9:15 PM,79.7,60.3,51,29.91,10.0,SSE,13.8,-,N/A,,Clear,160,2013-05-28 02:15:00
9:35 PM,79.7,59.2,49,29.92,10.0,South,11.5,17.3,N/A,,Clear,170,2013-05-28 02:35:00
9:55 PM,78.8,59.0,51,29.92,10.0,South,9.2,-,N/A,,Clear,170,2013-05-28 02:55:00
10:15 PM,78.8,58.3,49,29.93,10.0,SSE,9.2,-,N/A,,Clear,160,2013-05-28 03:15:00
10:35 PM,77.9,58.3,51,29.93,10.0,SSE,9.2,-,N/A,,Clear,160,2013-05-28 03:35:00
10:55 PM,77.7,58.5,51,29.93,10.0,SSE,8.1,-,N/A,,Clear,160,2013-05-28 03:55:00
11:15 PM,77.2,58.8,53,29.94,10.0,SSE,8.1,-,N/A,,Clear,160,2013-05-28 04:15:00
11:35 PM,76.6,59.2,55,29.94,10.0,SSE,9.2,-,N/A,,Clear,160,2013-05-28 04:35:00
11:55 PM,76.3,59.9,57,29.95,10.0,South,9.2,-,N/A,,Clear,170,2013-05-28 04:55:00